Погода в Андреевке

Казахстан     51°40′00″N   70°24′42″E
темп.,
°C
ветер,
м/с
пор.,
м/с
влажн.,
%
обл.,
%
осадки,
мм/ч
давл.,
гПа
погр.,
м
2 марта, вт
вт200:00−13зюз479795 0.3 1018113
03:00−16зюз3499100 0.0 101955
06:00−18зюз3399100 0.1 101925
09:00−18юз239899 0.1 101939
12:00−14зюз349299 0.1 1018250
15:00−11юз4692100 0.1 1017397
18:00−11зюз4794100 0.3 1017438
21:00−13зюз5109591 0.1 1018353
3 марта, ср
ср300:00−17зюз5109695 0.2 1019271
03:00−18юз51196100 0.1 1020308
06:00−19юз61296100 0.1 1021291
09:00−20ююз6129799 0.0 1020266
12:00−15юз7119297 0.0 1020401
15:00−11юз81491100 0.0 1018552
18:00−6юз81590100 0.1 1017734
21:00−5ююз81692100 0.1 1016738
4 марта, чт
чт400:00−4ююз101693100 0.4 1015722
03:00−3ююз101794100 0.4 1014841
06:00−3ююз111891100 1.0 1014854
09:00−5ююз111889100 0.1 1013650
12:00−4ююз111887100 0.2 1012695
15:00−3ююз111793100 0.1 1010918
18:00−2ююз101693100 0.5 1009887
21:00−2юз81596100 0.6 1008801
5 марта, пт
пт500:00−4юз8149299 0.8 1010807
03:00−7з71390100 0.3 1012525
06:00−13зюз6129593 0.3 1017259
09:00−13зюз6149495 0.0 1020294
12:00−9юз9178461 0.0 1020635
15:00−5юз12198687 0.0 1020966
18:00−5юз10198294 0.0 1020809
21:00−7юз10198292 0.0 1020757
6 марта, сб
сб600:00−8юз10198492 0.0 1021700
03:00−7юз91885100 0.0 1020749
06:00−7юз8178799 0.0 1019636
09:00−7юз81691100 0.1 1019596
12:00−6юз81493100 0.2 1019562
15:00−4зюз71192100 0.1 1020592
18:00−4зюз5893100 0.3 1020478
21:00−5юз4895100 0.1 1020417